This is the latest recevied weather packets stored in our database for station/object K4GSL. If no packets are shown the sender has not sent any weather packets the latest 10 day(s).
| Time | Temp. | Humidity | Pressure | Rain* | Wind** | Luminosity | Snow |
|---|---|---|---|---|---|---|---|
| 1777834145 | 25° C | 57% | 1014.8 hPa | 0 mm | - | 672 W/m² | - |
| 1777833842 | 24.44° C | 59% | 1015 hPa | 0 mm | - | 680 W/m² | - |
| 1777833538 | 23.89° C | 62% | 1014.8 hPa | 0 mm | - | 666 W/m² | - |
| 1777833235 | 23.89° C | 62% | 1014.8 hPa | 0 mm | - | 626 W/m² | - |
| 1777832933 | 23.89° C | 66% | 1014.9 hPa | 0 mm | - | 596 W/m² | - |
| 1777832631 | 23.89° C | 63% | 1015 hPa | 0 mm | - | 587 W/m² | - |
| 1777832328 | 23.33° C | 61% | 1015.2 hPa | 0 mm | - | 609 W/m² | - |
| 1777832025 | 23.33° C | 62% | 1015.1 hPa | 0 mm | - | 618 W/m² | - |
| 1777831722 | 23.33° C | 62% | 1015.1 hPa | 0 mm | - | 348 W/m² | - |
| 1777831420 | 22.78° C | 60% | 1015.2 hPa | 0 mm | - | 132 W/m² | - |
| 1777831116 | 22.22° C | 67% | 1015.2 hPa | 0 mm | - | 66 W/m² | - |
| 1777830814 | 21.67° C | 67% | 1015 hPa | 0 mm | - | 586 W/m² | - |
| 1777830515 | 21.67° C | 68% | 1015.4 hPa | 0 mm | - | 293 W/m² | - |
| 1777830213 | 21.11° C | 70% | 1015.4 hPa | 0 mm | - | 63 W/m² | - |
| 1777829908 | 21.11° C | 69% | 1015.2 hPa | 0 mm | - | 139 W/m² | - |
| 1777829605 | 20.56° C | 73% | 1015.5 hPa | 0 mm | - | 263 W/m² | - |
| 1777829302 | 20.56° C | 73% | 1015.2 hPa | 0 mm | - | 475 W/m² | - |
| 1777829000 | 20° C | 73% | 1015.5 hPa | 0 mm | - | 359 W/m² | - |
| 1777828695 | 20° C | 75% | 1015.5 hPa | 0 mm | - | 138 W/m² | - |
| 1777828392 | 19.44° C | 76% | 1015.7 hPa | 0 mm | - | 167 W/m² | - |
| 1777828089 | 19.44° C | 76% | 1015.6 hPa | 0 mm | - | 251 W/m² | - |
| 1777827786 | 18.89° C | 78% | 1015.6 hPa | 0 mm | - | 471 W/m² | - |
| 1777827483 | 18.89° C | 76% | 1015.6 hPa | 0 mm | - | 472 W/m² | - |
| 1777827181 | 18.33° C | 77% | 1015.7 hPa | 0 mm | - | 153 W/m² | - |
| 1777826876 | 17.78° C | 77% | 1015.8 hPa | 0 mm | - | 53 W/m² | - |
* Rain latest hour (hover to see other rain measurements)
** Current wind speed in m/s (hover to see current wind gust speed)